Home   Weather   Ettelbruck   Past weeks

Flag for Luxembourg Past Weather in Ettelbruck, Luxembourg — Yesterday and Last 2 Weeks

Now
23 °F

Clear.


Feels Like: 17 °F
Forecast: 26 / 42 °F
Wind: 5 mph from Northeast

Location: Luxembourg / Luxembourg

Current Time: Dec 4, 2016 at 9:26:55 am

Latest Report: Dec 4, 2016 at 8:00 am


Visibility: 28 mi

Pressure: 30.32 "Hg

Humidity: 85%

Dew Point: 20 °F

Location of EttelbruckLocation

Past Weather in Ettelbruck — Graph

°F

Ettelbruck Temperature Yesterday

Maximum temperature yesterday: 40 °F (at 12:00 am)
Minimum temperature yesterday: 29 °F (at 8:00 am)
Average temperature yesterday: 34 °F

High & Low Weather Summary for the Past Weeks

 TemperatureHumidityPressure
High58 °F (Nov 23, 3:00 pm)100% (Nov 21, 9:00 pm)30.60 "Hg (Nov 21, 9:00 pm)
Low22 °F (Nov 30, 6:00 am)47% (Nov 29, 3:00 pm)29.47 "Hg (Nov 20, 9:00 am)
Average40 °F82%30.11 "Hg
* Reported Nov 19 8:00 am — Dec 4 8:00 am, Ettelbruck, Weather by CustomWeather, © 2016

Note: Actual official high and low records may vary slightly from our data, if they occured in-between our weather recording intervals... More about our weather records

Advertising

Ettelbruck Weather History for the Previous 24 Hours

Scroll right to see more
 ConditionsComfort  
Time TempWeatherWind HumidityBarometerVisibility
8:00 am
Sun, Dec 4
23 °FClear.5 mph85%30.32 "Hg28 mi
7:00 am27 °FClear.7 mph77%30.29 "Hg19 mi
6:00 am27 °FClear.7 mph76%30.29 "Hg19 mi
5:00 am27 °FClear.7 mph76%30.29 "Hg19 mi
4:00 am28 °FClear.7 mph74%30.29 "Hg19 mi
3:00 am28 °FClear.7 mph76%30.29 "Hg25 mi
2:00 am28 °FClear.6 mph78%30.29 "Hg25 mi
1:00 am29 °FClear.7 mph78%30.29 "Hg25 mi
12:00 am29 °FClear.8 mph79%30.29 "Hg19 mi
11:00 pm
Sat, Dec 3
30 °FClear.8 mph78%30.28 "Hg19 mi
10:00 pm30 °FClear.8 mph78%30.29 "Hg19 mi
9:00 pm30 °FClear.9 mph77%30.28 "Hg22 mi
8:00 pm30 °FClear.8 mph79%30.28 "Hg22 mi
7:00 pm31 °FClear.6 mph79%30.27 "Hg25 mi
6:00 pm33 °FClear.7 mph77%30.27 "Hg25 mi
5:00 pm34 °FClear.6 mph72%30.25 "Hg25 mi
4:00 pm37 °FSunny.7 mph66%30.26 "Hg25 mi
3:00 pm38 °FSunny.6 mph61%30.24 "Hg25 mi
2:00 pm38 °FSunny.8 mph62%30.25 "Hg19 mi
1:00 pm37 °FPassing clouds.7 mph67%30.25 "Hg19 mi
12:00 pm35 °FPassing clouds.7 mph78%30.27 "Hg16 mi
11:00 am32 °FSunny.6 mph84%30.28 "Hg16 mi
10:00 am31 °FPassing clouds.6 mph89%30.28 "Hg12 mi
9:00 am29 °FPassing clouds.6 mph94%30.27 "Hg4 mi
Weather by CustomWeather, © 2016

See weather overviewHow to use our weather pages